200 serials | cardrecovery 6.10 build 1210 registration key serial numbers. convert cardrecovery 6.10 build 1210 registration key trail version to full software

Date Name Success Rate
2011-09-08 10:23:58 CardRecovery 4.10 build 1220 69%
2012-12-12 05:13:29 CardRecovery v5.30 build 1206 50%
2012-12-12 05:13:25 Cardrecovery v 5.20 build 0212-proxy 41%
2012-12-12 05:13:31 CardRecovery v5.30 build 1206 Rai Lally 66%
2009-10-22 23:50:34 WhereIsIt 3.90 Build 1210 82%
2012-12-12 19:14:56 Memory card v6.10 build 1210 64%
2012-12-13 19:49:06 Xilisoft DVD Creator 6.1.4 Build 1210 0%
2011-09-08 09:58:40 Acoustica Mixcraft v1.10 Build 15 Registration Info by MaBi 60%
2011-09-08 11:32:07 Microstation v5.xx.xx & 95 FULL REGISTRATION 73%
2009-10-17 06:20:07 CardRecovery V3.60 63%
2009-10-22 23:45:49 CardRecovery V3.60 39%
2012-12-12 05:13:23 CardRecovery 58%
2011-09-08 10:28:05 COM Wiz 1.8.0.1210 66%
2011-09-08 10:28:05 COM Wiz v1.8.0.1210 0%
2011-09-08 10:28:05 COM Wiz v1.8.0.1210 by DBC 0%
2011-09-08 11:34:17 MP3 Tag Clinic v3.1210 0%
2009-10-22 23:27:18 Allok MOV Converter 3.3.1210 67%
2009-10-17 06:32:24 Sobolsoft MS Word Convert Numbers To Text Software V7.0 74%
2011-09-08 12:54:19 Tiny Personal Firewall 5.00.1210 0%
2011-09-08 12:54:19 Tiny Personal Firewall v5.00.1210 0%
2012-12-12 16:10:10 JamVideoSoft CD Duplicate Master v1.0.0.1210 0%
2009-10-22 23:50:11 Tiny Personal Firewall 5.00.1210 Desktop Edition 0%
2009-10-22 23:50:11 Tiny Personal Firewall 5.00.1210 Server Edition 0%
2011-09-08 12:54:19 Tiny Personal Firewall 5.00.1210 Desktop Edition 0%
2011-09-08 12:54:19 Tiny Personal Firewall 5.00.1210 Server Edition 0%
2011-09-08 12:54:19 Tiny Personal Firewall v5.00.1210 Desktop Edition 0%
2011-09-08 12:54:19 Tiny Personal Firewall v5.00.1210 Server Edition 0%
2009-10-22 23:27:28 AVG Internet Security 8.0 Build 93 FULL VERSION 51%
2011-09-08 10:42:09 DAS Registration 1.5.2 64%
2011-09-08 10:42:09 DAS Registration For CW5 45%
2011-09-08 10:42:09 DAS Registration v1.5.2 0%
2009-10-17 06:27:02 Lazarus Registration DLL V1.0 55%
2009-10-22 23:48:48 MemoriesonTV Registration 0%
2009-10-22 23:49:42 Registration Wizard 73%
2011-09-08 10:06:47 AnetHelpTool v4.02 Registration 52%
2011-09-08 10:22:13 ByeLines Registration 78%
2011-09-08 10:57:42 Ftgate Registration 72%
2011-09-08 11:15:16 Infodex v2.10 Registration 45%
2011-09-08 11:25:08 Lazarus Registration DLL v1.0 47%
2011-09-08 11:27:46 Mac Opener v3.0 Registration 57%
2011-09-08 11:32:59 mIRC v4.5+ Registration 35%
2011-09-08 11:32:59 mIRC v4.52 Registration 51%
2011-09-08 12:37:02 Quant v2.0 Registration 52%
2011-09-08 12:41:14 Registration Suite 1.0 56%
2011-09-08 12:41:14 Registration Suite v1.0 60%
2011-09-08 12:41:14 Registration Wizard Pro 5.01 46%
2011-09-08 12:41:14 Registration Wizard Pro v5.01 60%
2011-09-08 13:18:59 WinHacker 95 v2.02 Registration 57%
2012-12-13 05:12:00 Registration Key : 526EFEF086E09600449E667EA2DAE8E2E6D642BC 65%
2009-10-22 23:27:21 Ardamax Keylogger 2.9 Registration 56%
2009-10-22 23:48:49 Microsoft Registration Hacker - 39%
2009-10-22 23:49:57 SoudForge ALL (No Registration Requiered) 0%
2009-10-22 23:50:26 Valve's Registration Armor Key-Gen 60%
2011-09-08 10:21:42 Browserola v1.01 Temp. Registration 0%
2011-09-08 10:56:11 FontLook v3.1 Registration Code 72%
2011-09-08 11:31:51 Microsoft Registration Hacker 0%
2011-09-08 11:31:51 Microsoft Registration Hacker - 0%
2011-09-08 11:31:51 Microsoft Registration HackerMSREGHACK 0%
2011-09-08 11:42:43 Nic O'Matic 1.6 Registration Code 67%
2011-09-08 11:42:43 Nic O'Matic v1.6 Registration Code 48%
2011-09-08 12:34:57 PolyTrans V1.2E Registration Activator CD-Key 73%
2011-09-08 12:34:57 PolyView v2.9b16 Registration 0%
2011-09-08 12:54:09 Time Registration (German) 1.10 0%
2011-09-08 12:59:30 Super Collapse Registration 83%
2011-09-08 13:23:15 Yipe! II for Windows Registration #154 0%
2012-12-13 08:49:53 Softwarenetz Time Registration v1.10 28%
2012-12-13 08:49:56 Softwarenetz Time Registration v1.14 0%
2012-12-13 15:34:10 Valve's Registration Armor Key-Gen 0%
2009-10-22 23:48:17 Internet Download Manager Registration 55%
2011-09-08 10:25:56 Cheyenne Bitware V4.0 Registration Number 53%
2011-09-08 11:31:51 Microsoft Registration Hacker MSREGHACK 69%
2011-09-08 11:31:51 Microsoft Visual Basic 5 registration cd key 72%
2011-09-08 12:54:14 TimeSlips 10.5 enterprise - with registration code! 54%
2012-12-12 08:07:32 Download avast 5.0.667 Antivirus registration 52%
2012-12-13 05:12:00 Registration Code For PDFZilla Giveaway 42%
2012-12-13 05:12:00 Registration key for x-3gp-video-converter-38540 81%
2012-12-13 13:12:40 Total Image Converter Registration Key 49%
2011-09-08 11:30:16 MediaBlaze 98 v1.01 Win95/NT User: delphic Registration 0%
2012-12-13 05:12:00 Registration code:-826510-16101-266644 59%
2009-10-22 23:49:02 Norton Internet Security 2005 Registration Guide 0%
2012-12-12 19:40:26 Microsoft Visual Basic 2008 Express Edition Registration key 50%
2009-10-22 23:27:17 ALL THE SIMS Serial Numbers 75%
2012-12-12 21:48:23 NERO 9 ( TURN TRAIL TO FULL ) 25%
2009-10-17 06:32:24 Sobolsoft Excel Convert Numbers To Text V7.0 54%
2009-10-17 06:32:24 Sobolsoft Excel Convert Phone Numbers V7.0 66%
2012-12-12 21:51:48 Nero Burning Rom 11 Trail Version 82%
2009-10-22 23:27:25 AudioGrabber 1.82 Full Build 1 0%
2009-10-22 23:49:59 SpySweeper V3.2.0 Build 142 Full 0%
2011-09-08 10:10:19 AudioGrabber v1.82 full build 1 0%
2009-10-22 23:49:52 Serial Splitter 2.0 Build 526 0%
2011-09-08 12:46:52 Serial Splitter 2.0 Build 526 0%
2011-09-08 12:46:52 Serial Splitter v1.0 Build 526 0%
2009-10-17 06:23:04 FotoBatch 5 Pro Build 1113 SERIAL 67%
2009-10-22 23:47:52 FlashFXP V3.4.0 Build 1145 - SERIAL ONLY 0%
2011-09-08 10:28:48 Convert Doc to PDF For Word v1.00 Build 02.13 0%
2011-09-08 10:28:48 Convert PPT to PDF For PowerPoint v1.00 Build 02.13 0%
2011-09-08 13:15:45 Wave Convert Pro 2.0 build 2 0%
2011-09-08 13:15:45 Wave Convert Pro 3.1 Build 4 0%
2011-09-08 13:15:45 Wave Convert Pro v2.0 build 2 0%
2011-09-08 13:15:45 Wave Convert Pro v3.1 Build 4 0%
2009-10-17 06:24:21 Haggerty Associates Signed Numbers For The Vision Impaired V3.0.0 Network Version 35%
2009-10-22 23:48:45 MagicISO Maker V5.4 Build 248 Español Full 0%
2011-09-08 09:59:11 Acronis True Image v7.0 Build 595 Full 0%
2011-09-08 09:59:12 Acronis True Image v8.0 Build 764 Full 0%
2012-12-12 15:45:24 Internet Download Manager (IDM) v6.12 build 21 Full 78%
2012-12-12 18:19:36 MagicISO Maker v5.4 Build 248 Español Full 0%
2009-10-17 06:19:00 Audio Edit Magic 7.5.(build 630) SERIAL 60%
2009-10-17 06:33:27 The Wine Cellar Book V1.7 Build 392 SERIAL 0%
2009-10-22 23:48:01 GSDataServer V1.0 Build 55 Serial By Extreme Team 0%
2009-10-22 23:48:17 IParmor *fixed Serial* 5.40 Build 0112 0%
2009-10-22 23:50:37 WinOrganizer V3.3 Build 971 Serial By Extreme Team 0%
2011-09-08 11:17:03 IParmor *fixed serial* 5.40 build 0112 0%
2009-10-22 23:48:07 Hero Video Convert 2.0 Build 05.27 0%
2011-09-08 10:28:48 Convert Doc to PDF For Word v2.00 Build 010905 0%
2011-09-08 10:28:48 Convert PPT to PDF For PowerPoint v2.00 Build 010905 0%
2011-09-08 10:28:48 Convert XLS to PDF For Excel v2.00 Build 010905 0%
2011-09-08 11:06:30 Hero Video Convert 2.0 build 05.27 0%
2011-09-08 11:06:30 Hero Video Convert v2.0 build 05.27 0%
2011-09-08 12:29:31 PDF-Convert PPT to PDF Converter v3.00 Build 010905 100%
2011-09-08 12:52:22 TelePort Pro version 1.29 Build 1530 1.29 Build 1530 0%
2011-09-08 09:59:11 Acronis True Image Server v7.0 Build 589 Full 0%
2011-09-08 09:59:11 Acronis True Image Server v7.0 Build 595 Full 0%
2011-09-08 09:59:11 Acronis True Image Server v8.0 Build 764 Full 0%
2011-09-08 11:16:24 Internet Download Manager 5.01 Build 2 (DEC/21/2005) full 80%
2009-10-17 06:18:31 AKALA EXE Lock 3.20 Build 31122 Serial AT4RE 9%
2009-10-17 06:28:08 Mutilate File Wiper V2.94 Build 14 Inc Serial By AT4RE 0%
2009-10-17 06:33:27 Total Recorder Editor 8.5 Build 865 Serial By AT4RE 8%
2009-10-22 23:48:00 GoldenSection Notes V3.3 Build 971 Serial By Extreme Team 33%
2009-10-22 23:48:00 GoldenSection Reader V3.3 Build 969 Serial By Extreme Team 0%
2011-09-08 11:06:32 Hero Video Convert V2.7 Build 1207 0%
2011-09-08 12:29:31 PDF-Convert DOC to Image Converter v2.00 Build 010905 0%
2011-09-08 12:29:31 PDF-Convert Excel to PDF Converter v3.00 Build 010905 64%
2011-09-08 12:29:31 PDF-Convert PPT to Image Converter v2.00 Build 010905 0%
2011-09-08 12:29:31 PDF-Convert Word to PDF Converter v3.00 Build 010905 58%
2011-09-08 12:29:31 PDF-Convert XLS to Image Converter v2.00 Build 010905 0%
2009-10-22 23:49:56 Sothink DHTMLMenu 7.0 Build 60906 Serial By Extreme Team 0%
2009-10-22 23:49:57 Sothink DVD Ripper V1.2 Build 60822 Serial By Extreme Team 100%
2009-10-22 23:49:57 Sothink SWF Decompiler 3.4 Build 60912 Serial By Extreme Team 89%
2009-10-22 23:49:57 Sothink SWF Quicker 2.5 Build 60913 Serial By Extreme Team 0%
2012-12-12 15:22:54 ImTOO MPEG Encoder Ultimate 5.1.26 Build 1016 Serial 0%
2009-10-22 23:50:46 Xilisoft Video Converter Ultimate 5.1.18 Build-0109 Serial By ScoRPioN2 84%
2009-10-17 06:27:55 McFunSoft Video Convert Master Christmas Edition V3.5.4 Build 432-TE 0%
2011-09-08 11:20:33 Just The Fax version 2.9z Build 9 0%
2009-10-22 23:49:57 Sothink IPod Video Converter 1.1 Build 60822 Serial By Extreme Team 0%
2009-10-22 23:46:29 Du Meter Version 3.07 Build 200 0%
2009-10-22 23:50:38 WinSCL Version 4.0 Build 149 0%
2009-10-22 23:50:52 Ytunnel Version 2.0 Build 352 0%
2011-09-08 10:45:13 DU Meter Version: 3.02 Build 76 65%
2011-09-08 10:56:10 FontExplorerL.M Version: 4.0.0 Build 23 0%
2011-09-08 11:06:13 HattrickPoli version 4 build 412 66%
2011-09-08 13:19:40 WinSCL Version 4.0 Build 149 0%
2009-10-22 23:27:13 Ad-aware Professional Version 6 Build 181 0%
2009-10-22 23:27:17 Alcohol Version 1.9.5 Build 2802 0%
2009-10-22 23:45:52 Clickteam InstallCreator Pro 2.0.0.24 (version 2.0 Build 24) 0%
2009-10-22 23:48:44 Macro Express Version 3.5d Build 1 3.5.4.1 0%
2009-10-22 23:49:11 O&O Defrag Version 8.0 Build 1398 0%
2009-10-22 23:49:20 PCDJ Red Version 5.3 Build 1012 59%
2009-10-22 23:49:55 SoftReef Lab CompuPIC Version 6.23 Build 13 0%
2009-10-22 23:49:56 Sony DVD Architect Version 1.0d (Build 230) 63%
2011-09-08 10:20:02 BitDefender Professional Plus Version: 9 Build 9.5 0%
2011-09-08 10:44:24 Doctor Aquarium Version: 1.0.4 Build 9 0%
2011-09-08 11:28:31 Magic.C.Plus.Plus Version: 3.5.Build.060210 0%
2011-09-08 11:41:25 Net Control 2 Client Version v2.80 build 86%
2011-09-08 12:27:09 Opera Version 8.0 Build 7561 0%
2011-09-08 12:43:36 RightClick Enhanced Version: 1.20 Build 739 0%
2011-09-08 12:49:47 SoftReef Lab CompuPIC version 6.23 build 13 0%
2012-12-12 04:36:32 Brasfoot 2011 - No Build Version 0%
2009-10-17 06:27:46 Magix Mp3 Maker 10 DeLuxe V6.10 Build 513 E Version 75%
2009-10-22 23:27:25 Audio Mid Recorder Version 3.65 Build 1326 0%
2009-10-22 23:48:45 Magic ISO Maker Version 5.5 (build 0265) 72%
2009-10-22 23:49:20 PC Cillin 2005 Version 12.00 Build 1244 0%
2009-10-22 23:49:23 Picasa Version 1.5.0 Build 4.15 Final Release 0%
2009-10-22 23:49:56 Sony Sound Forge 7.0 Version 7.0 (Build 214) 57%
2011-09-08 10:48:46 Edge Diagrammer Version: 4.16 build 1783 0%
2011-09-08 10:54:32 File.Security.Manager Version: 1.7.1.build.47 0%
2011-09-08 11:15:04 ImTOO.OGG.Converter Version: 2.1.57.build.0510 0%
2011-09-08 11:27:13 Longhorn Version: ALFA build 4015 0%
2011-09-08 12:58:40 Steganos Antispyware 2006 Version: 8.4.3 ( Build 395) 0%
2011-09-08 13:12:41 Visual CASE Version v1.0 build 120SP1 0%
2012-12-12 05:08:15 Camptasia Stdudio Version 7.0.0 (Build 1426) 0%
2012-12-12 05:10:15 Camtasia Studio Version 7.1.1(Build 1785) 0%
2009-10-22 23:27:28 AVG Anti-Virus Professional Edition 7.5 (full Version) Version 7.5.476 21-Jun-2007 64%
2009-10-17 06:27:46 Magix Photo Cleaning Lab V1.53 Build 4999 E Version 52%
2009-10-22 23:50:35 Windows Longhorn Version: ALFA Build 4015 0%
2009-10-22 23:50:37 Windows_XP Professional - SP2 Version 2002 Build 5.1.2600 0%
2011-09-08 10:31:36 Corel Print House 3.0 Build 278 Spanish Version 0%
2011-09-08 13:18:23 Windows Longhorn Version: ALFA build 4015 0%
2012-12-12 15:21:24 ImTOO MP4 Video Converter Version: 2.1.62 build 0412b 0%
2011-09-08 13:13:00 VMware Workstation 3.2 (for Linux) Released Version Build 2230 0%
2009-10-22 23:44:51 Build-A-Badge (Photo ID Software) 74%
2012-12-12 10:21:14 Efficient Software EfficientPIM Pro v2.95.Build 233 0%
2009-10-17 06:26:27 Knownsoft Turbo Searcher Standard Version V3.50 Build 061114 Keymaker 47%
2009-10-17 06:26:27 Knownsoft Turbo Searcher Standard Version V3.50 Build 070207 Keymaker 54%
2009-10-22 23:48:30 Knownsoft Turbo Searcher Standard Version V3.50 Build.061114 Retail 0%
2011-09-08 12:35:18 Port80 Software ServerMask for IIS v2.2 Build 2004.11.03 0%
2011-09-08 12:44:04 Rose City Software - Registry First Aid 4.1.0 build 707 100%
2012-12-12 23:59:35 OpenSight Software FlashFXP v4.1.8.build 1700 0%
2009-10-17 06:24:22 Helm-Software MultiPlant Classic V3.16 Build 162 German 0%
2009-10-17 06:24:22 Helm-Software MultiPlant Compact V3.92 Build 8 German 0%
2009-10-17 06:24:22 Helm-Software MultiPlant Compact V3.96 Build 69 German 0%